[[{"header":{"parameterUnit":"m.s-1","parameterCategory":1,"la1":30.2991,"la2":30.254,"lo1":-89.0895,"lo2":-89.0444,"dy":0.0017,"dx":0.0017,"nx":28,"ny":28,"refTime":"2023-06-21T21:00:00:Z","depth":0,"parameterNumber":2,"parameterNumberName":"U-component_of_WINDS"},"data":[0,0,0,0,0,0,0,0,0,0,0,0,0,0,0,0,0,0,0,0,0,0,0,0,0,0,0,0,0,0,0,0,0,0,0,0,0,0,0,0,0,0,0,0,0,0,0,0,0,0,0,0,0,0,0,0,0,0,0.5005,0.5007,0,0.5174,0.5176,0.5178,0.5269,0.5269,0.5269,0.5269,0.5447,0.5451,0.5456,0,0,0,0,0,0,0,0,0,0,0,0,0,0.4763,0.4767,0.5005,0.5007,0.5009,0.5174,0.5176,0.5179,0.5269,0.5269,0.5269,0.5269,0.5445,0.545,0.5456,0,0,0,0,0,0,0,0,0,0,0,0,0,0.4894,0.4768,0.5004,0.5074,0.5082,0.5174,0.5177,0.5179,0.5269,0.5269,0.5269,0.527,0.5443,0.545,0.5457,0.5494,0,0,0.5478,0.5481,0,0,0,0,0,0,0,0,0.4886,0.4902,0.5061,0.5069,0.5078,0.5201,0.5156,0.5285,0.5269,0.5198,0.5269,0.527,0.5365,0.5378,0.541,0.5502,0.551,0.5478,0.5482,0.5485,0.5487,0,0,0,0,0,0,0,0.4877,0.4896,0.5072,0.5064,0.5074,0.5098,0.5117,0.5181,0.5278,0.5204,0.5211,0.523,0.5369,0.5403,0.5414,0.5512,0.5478,0.5484,0.5488,0.5491,0.5645,0.5645,0,0,0,0,0,0,0.4856,0.4887,0.5067,0.5077,0.4981,0.5102,0.5123,0.5161,0.5277,0.5295,0.5229,0.5233,0.5391,0.5406,0.5421,0.5472,0.5485,0.5492,0.5496,0.5645,0.5645,0.5645,0,0,0,0,0,0,0.4851,0.4871,0.506,0.4984,0.501,0.5106,0.5148,0.5164,0.5198,0.5296,0.5315,0.5245,0.5392,0.5411,0.5475,0.548,0.5495,0.5501,0.5645,0.5645,0.5645,0.5575,0,0,0,0,0,0,0.4843,0.4869,0.4883,0.4984,0.5014,0.5109,0.5148,0.5167,0.5209,0.5216,0.5316,0.5333,0.5393,0.5464,0.5482,0.5489,0.5506,0.5645,0.5645,0.5645,0.5577,0.5573,0.5569,0,0,0,0,0,0.4834,0.4857,0.4883,0.4904,0.5033,0.5109,0.5127,0.5195,0.5209,0.5224,0.5288,0.533,0.5476,0.547,0.5491,0.55,0.5645,0.5645,0.5645,0.5579,0.5574,0.5569,0,0,0,0,0,0,0.4755,0.4871,0.4902,0.4957,0.5023,0.5125,0.5146,0.5186,0.525,0.5254,0.5337,0.5359,0.5415,0.5464,0.5455,0.5543,0.5565,0.5569,0.5508,0.5504,0.5499,0.5486,0.5512,0,0,0,0,0,0.4743,0.4794,0.4894,0.4934,0.4965,0.505,0.5086,0.5132,0.5204,0.5232,0.5301,0.537,0.5432,0.547,0.5533,0.5585,0.5609,0.5602,0.5598,0.5594,0.5596,0.5628,0.5627,0.5645,0.5645,0.5645,0,0,0.4721,0.4791,0.4818,0.4919,0.4976,0.5028,0.5072,0.5126,0.5166,0.5241,0.5305,0.5357,0.544,0.5498,0.5527,0.5541,0.5597,0.5594,0.559,0.5595,0.5628,0.5626,0.5625,0.5645,0.5645,0.5645,0,0,0.4706,0.4764,0.4804,0.4859,0.4943,0.5,0.5009,0.5106,0.5143,0.5208,0.5266,0.5316,0.542,0.5477,0.5519,0.5527,0.5568,0.5545,0.5522,0.5553,0.5551,0.555,0.5553,0.5553,0.5547,0.5547,0.5547,0,0.4668,0.4748,0.4819,0.4869,0.4913,0.4982,0.5024,0.5074,0.5175,0.5204,0.5218,0.5351,0.5411,0.5484,0.5486,0.5518,0.5532,0.5534,0.5545,0.5545,0.5546,0.5549,0.555,0.5544,0.5544,0.5545,0.5545,0,0.4697,0.4751,0.4773,0.4868,0.4914,0.4959,0.5038,0.5077,0.512,0.5175,0.5241,0.5316,0.5395,0.5416,0.5459,0.5496,0.5502,0.5529,0.5553,0.5539,0.5544,0.5546,0.5539,0.554,0.5541,0.5542,0,0,0.4635,0.4769,0.4776,0.482,0.4919,0.4963,0.5013,0.5089,0.512,0.5188,0.5232,0.5319,0.5345,0.5393,0.5444,0.547,0.5472,0.5495,0.5498,0.5488,0.5517,0.5495,0.5496,0.55,0.5501,0.5501,0.551,0,0.4635,0.4725,0.4791,0.4857,0.4909,0.4976,0.502,0.5085,0.5139,0.5192,0.5252,0.5312,0.5342,0.5372,0.5401,0.5465,0.5479,0.5466,0.5543,0.5545,0.5519,0.5499,0.5476,0.548,0.5513,0.5513,0.5514,0,0.4646,0.471,0.478,0.4874,0.4899,0.4936,0.5012,0.5061,0.5138,0.5175,0.5229,0.528,0.5337,0.5356,0.5435,0.5425,0.5461,0.5497,0.5499,0.5509,0.5528,0.5507,0.5484,0.5484,0.5517,0.5517,0.5517,0,0.4594,0.4699,0.4754,0.479,0.4901,0.4926,0.4973,0.505,0.5092,0.5159,0.5187,0.526,0.5299,0.5355,0.5426,0.5433,0.5498,0.5523,0.5531,0.5529,0.5541,0.5539,0.5523,0.5564,0.5564,0.5564,0.5564,0,0.4586,0.4626,0.4733,0.4766,0.4814,0.4891,0.4936,0.499,0.5058,0.5105,0.5169,0.5211,0.5302,0.5356,0.5412,0.5469,0.5487,0.5519,0.5533,0.5513,0.5509,0.5537,0.5539,0.5565,0.5565,0.5565,0.5565,0,0.4536,0.4608,0.4674,0.4773,0.48,0.483,0.4917,0.4953,0.501,0.5068,0.5087,0.5177,0.5244,0.5319,0.5412,0.545,0.5503,0.5524,0.5477,0.5485,0.5489,0.5487,0.5489,0.5494,0.5532,0.5531,0.5531,0,0.4526,0.4558,0.4662,0.4697,0.4743,0.4799,0.4842,0.4919,0.4962,0.5052,0.5078,0.515,0.5211,0.5315,0.539,0.5461,0.5484,0.548,0.5495,0.5474,0.5484,0.5481,0.5485,0.5475,0.5474,0.5474,0.5473,0,0.45,0.4534,0.4593,0.4665,0.4714,0.4775,0.4838,0.4864,0.4954,0.4999,0.5068,0.5115,0.521,0.5281,0.5361,0.5412,0.5458,0.5468,0.5474,0.5453,0.5424,0.544,0.5464,0.5467,0.5468,0.5468,0.5469,0.5469,0.447,0.4502,0.458,0.4644,0.4699,0.4757,0.4796,0.4858,0.4917,0.4999,0.5041,0.511,0.5187,0.53,0.535,0.5405,0.542,0.5428,0.5431,0.5431,0.5425,0.5415,0.542,0.5421,0.5421,0.5421,0.5421,0,0.4447,0.45,0.4558,0.4645,0.4695,0.4734,0.4806,0.4846,0.4905,0.4973,0.5032,0.5112,0.5181,0.5261,0.5335,0.5365,0.5387,0.5381,0.538,0.5391,0.5408,0.5395,0.5362,0.5362,0.5362,0.5362,0.5362,0.5362,0.4441,0.4497,0.4541,0.4627,0.4681,0.4748,0.4786,0.484,0.4895,0.498,0.5038,0.5089,0.5163,0.5243,0.5309,0.5331,0.5355,0.5343,0.5371,0.5385,0.539,0.5395,0.5383,0.5348,0.5347,0.535,0.535,0.535]},{"header":{"parameterUnit":"m.s-1","parameterCategory":1,"la1":30.2991,"la2":30.254,"lo1":-89.0895,"lo2":-89.0444,"dy":0.0017,"dx":0.0017,"nx":28,"ny":28,"refTime":"2023-06-21T21:00:00:Z","depth":0,"parameterNumber":3,"parameterNumberName":"V-component_of_WINDS"},"data":[0,0,0,0,0,0,0,0,0,0,0,0,0,0,0,0,0,0,0,0,0,0,0,0,0,0,0,0,0,0,0,0,0,0,0,0,0,0,0,0,0,0,0,0,0,0,0,0,0,0,0,0,0,0,0,0,0,0,3.9851,3.9851,0,3.9914,3.9915,3.9915,3.9923,3.9923,3.9922,3.9921,3.9981,3.9983,3.9985,0,0,0,0,0,0,0,0,0,0,0,0,0,3.9733,3.9735,3.9851,3.9851,3.9852,3.9914,3.9915,3.9915,3.9923,3.9923,3.9922,3.9921,3.9981,3.9983,3.9986,0,0,0,0,0,0,0,0,0,0,0,0,0,3.9789,3.9736,3.985,3.9864,3.9865,3.9914,3.9915,3.9916,3.9923,3.9923,3.9922,3.9921,3.998,3.9983,3.9986,4.0024,0,0,3.9996,3.9997,0,0,0,0,0,0,0,0,3.9785,3.9793,3.9861,3.9863,3.9865,3.991,3.9895,3.9952,3.9924,3.9901,3.9921,3.992,3.9958,3.9963,3.9977,4.0027,4.0029,3.9996,3.9998,4.0,4.0,0,0,0,0,0,0,0,3.9782,3.979,3.9875,3.9862,3.9864,3.9865,3.9872,3.9906,3.9934,3.9903,3.9904,3.9912,3.9959,3.9973,3.9978,4.003,3.9996,3.9999,4.0001,4.0002,4.0116,4.0117,0,0,0,0,0,0,3.9776,3.9787,3.9873,3.9877,3.9822,3.9868,3.9876,3.9896,3.9933,3.9938,3.9912,3.9912,3.9968,3.9974,3.998,4.0028,4.0,4.0003,4.0004,4.0115,4.0116,4.0117,0,0,0,0,0,0,3.9773,3.9784,3.9871,3.9833,3.9844,3.9871,3.9894,3.9898,3.9913,3.994,3.9945,3.9922,3.9968,3.9976,4.0014,4.003,4.0004,4.0007,4.0113,4.0115,4.0116,4.0123,0,0,0,0,0,0,3.977,3.9783,3.9798,3.9833,3.9846,3.9904,3.9895,3.99,3.9919,3.9919,3.9951,3.9955,3.9968,4.0009,4.0017,4.0034,4.0009,4.0112,4.0114,4.0116,4.0121,4.0125,4.0127,0,0,0,0,0,3.9766,3.9796,3.9799,3.9809,3.9866,3.9905,3.9913,3.9928,3.992,3.9935,3.9953,3.9954,4.0027,4.0013,4.0022,4.004,4.0111,4.0113,4.0116,4.012,4.0124,4.0127,0,0,0,0,0,0,3.976,3.9801,3.9804,3.9847,3.9873,3.9907,3.9926,3.9931,3.9958,3.9957,3.9973,3.998,4.0017,4.0032,4.0016,4.0079,4.0068,4.0072,4.0068,4.0072,4.0075,4.0071,4.0012,0,0,0,0,0,3.9765,3.9795,3.9828,3.9862,3.9875,3.9899,3.9916,3.9926,3.9953,3.9963,3.9984,4.0008,4.0037,4.0055,4.0083,4.0124,4.0131,4.0141,4.0144,4.0146,4.015,4.0173,4.0178,4.0125,4.0125,4.0125,0,0,3.9773,3.9799,3.9816,3.9862,3.9883,3.9913,3.9908,3.9939,3.9961,3.9967,4.0005,4.0021,4.005,4.009,4.0108,4.0103,4.0166,4.0149,4.0151,4.0153,4.0176,4.0181,4.0186,4.0127,4.0126,4.0126,0,0,3.9803,3.9826,3.9858,3.988,3.9913,3.9928,3.9936,3.9969,3.9981,4.002,4.0025,4.0051,4.0099,4.012,4.0137,4.0177,4.0179,4.0185,4.0201,4.0224,4.0228,4.0232,4.0247,4.0252,4.0189,4.0189,4.0189,0,3.9809,3.9856,3.9873,3.9905,3.9925,3.9934,3.9966,3.9986,4.0025,4.0039,4.0033,4.0095,4.0115,4.016,4.017,4.0183,4.0192,4.0182,4.0226,4.023,4.0234,4.0249,4.0254,4.0189,4.0189,4.0189,4.0189,0,3.9861,3.9894,3.9915,3.9956,3.9978,4.001,4.0031,4.0051,4.0059,4.0075,4.0114,4.0139,4.0172,4.0183,4.019,4.023,4.0226,4.0223,4.0212,4.0239,4.0253,4.0259,4.019,4.019,4.019,4.019,0,0,3.9889,3.9941,3.9948,3.9967,4.0005,4.003,4.0062,4.0096,4.0114,4.0141,4.0168,4.021,4.0208,4.0227,4.0236,4.0256,4.0288,4.0251,4.0252,4.0257,4.0334,4.0337,4.0343,4.0289,4.029,4.0291,4.0332,0,3.9925,3.9985,4.0002,4.0051,4.0082,4.0091,4.0119,4.0145,4.0161,4.0188,4.0204,4.0234,4.0229,4.0241,4.0261,4.0279,4.0303,4.0277,4.0314,4.0316,4.0308,4.035,4.0353,4.039,4.0337,4.0338,4.0339,0,3.9974,4.0005,4.0058,4.0094,4.0107,4.0132,4.0166,4.0192,4.0221,4.0231,4.0253,4.0261,4.0295,4.0282,4.0328,4.031,4.0326,4.0337,4.0339,4.0344,4.0329,4.0356,4.0402,4.0408,4.0347,4.0347,4.0346,0,3.999,4.0045,4.0084,4.01,4.0142,4.0159,4.0177,4.0206,4.0226,4.0255,4.0268,4.03,4.0317,4.0341,4.0357,4.0347,4.0402,4.0391,4.0412,4.0411,4.0423,4.0422,4.0473,4.0432,4.0432,4.0432,4.0432,0,4.0029,4.0061,4.0093,4.0117,4.0153,4.0172,4.0208,4.0226,4.0251,4.0279,4.0288,4.0313,4.0333,4.036,4.0373,4.041,4.0417,4.0426,4.0429,4.0426,4.0425,4.0437,4.0435,4.0434,4.0433,4.0433,4.0433,0,4.0053,4.0075,4.0119,4.0156,4.0166,4.0192,4.0223,4.0246,4.0263,4.0298,4.0307,4.0332,4.0366,4.0385,4.0425,4.0434,4.0476,4.0477,4.0466,4.0468,4.0488,4.0487,4.0549,4.0559,4.0511,4.0511,4.0512,0,4.0076,4.0102,4.0142,4.0163,4.0181,4.0213,4.0235,4.0254,4.0275,4.0312,4.0331,4.0365,4.0394,4.0446,4.0468,4.05,4.0503,4.0522,4.0507,4.0504,4.0504,4.0503,4.0506,4.0525,4.0525,4.0526,4.0526,0,4.0115,4.0126,4.0157,4.0193,4.0219,4.0247,4.0275,4.0291,4.0315,4.0338,4.0374,4.0396,4.044,4.0474,4.0508,4.0525,4.053,4.0531,4.0538,4.0535,4.0528,4.0533,4.0475,4.0529,4.0529,4.0529,4.0529,4.0528,4.0141,4.0165,4.0198,4.0232,4.0256,4.0283,4.0307,4.0328,4.0359,4.0397,4.0406,4.0443,4.0473,4.0519,4.0537,4.0566,4.0563,4.0572,4.0575,4.0577,4.0578,4.0523,4.0572,4.0572,4.0572,4.0572,4.0572,0,4.0181,4.0203,4.0235,4.0276,4.0304,4.0307,4.0339,4.0362,4.0395,4.0423,4.0452,4.0493,4.0526,4.0551,4.0585,4.0604,4.0607,4.0612,4.0611,4.0615,4.0579,4.0571,4.0609,4.0609,4.0609,4.0609,4.0609,4.0609,4.0206,4.0247,4.0261,4.0314,4.0336,4.0374,4.0392,4.0417,4.0439,4.0486,4.0514,4.0531,4.0558,4.0594,4.0625,4.0631,4.0644,4.0649,4.0656,4.0622,4.0618,4.0614,4.0606,4.0651,4.0652,4.069,4.0691,4.0691]}]]